Location: Monroe
(41.9160°N, 83.3980°W)
Time: 03:57:56
(UTC-05:00)

ISS - All Passes

Search period start: 06 March 2015 00:00
Search period end: 16 March 2015 01:00
Orbit: 396 x 408 km, 51.6° (Epoch: 05 March)

Date Brightness Start Highest point End Pass type
(mag) Time Alt. Az. Time Alt. Az. Time Alt. Az.
06 Mar - 08:06:29 10° SW 08:09:41 65° SE 08:12:53 10° ENE daylight
06 Mar - 09:43:40 10° WNW 09:46:21 23° NNW 09:49:01 10° NE daylight
06 Mar - 11:21:42 10° NW 11:23:37 15° N 11:25:33 10° NE daylight
06 Mar - 12:58:09 10° NW 13:00:53 25° NNE 13:03:37 10° ENE daylight
06 Mar - 14:34:19 10° WNW 14:37:31 58° SW 14:40:42 10° SE daylight
07 Mar - 07:13:56 10° SSW 07:16:51 32° SE 07:19:48 10° ENE daylight
07 Mar - 08:50:17 10° W 08:53:16 33° NNW 08:56:15 10° NE daylight
07 Mar - 10:28:24 10° NW 10:30:25 15° N 10:32:24 10° NNE daylight
07 Mar - 12:05:21 10° NNW 12:07:45 19° NNE 12:10:09 10° ENE daylight
07 Mar - 13:41:23 10° NW 13:44:37 72° NNE 13:47:51 10° ESE daylight
07 Mar - 15:19:04 10° W 15:20:42 13° SW 15:22:14 10° SSW daylight
08 Mar - 07:21:53 10° S 07:24:03 17° SE 07:26:18 10° E visible
08 Mar - 08:57:03 10° WSW 09:00:14 55° NNW 09:03:25 10° NE daylight
08 Mar - 10:34:55 10° WNW 10:37:12 17° NNW 10:39:27 10° NNE daylight
08 Mar - 12:12:26 10° NNW 12:14:32 16° N 12:16:39 10° NE daylight
08 Mar - 13:48:31 10° NW 13:51:37 41° NNE 13:54:42 10° E daylight
08 Mar - 15:25:12 10° WNW 15:27:55 25° SW 15:30:37 10° SSE daylight
09 Mar - 08:04:02 10° SW 08:07:15 79° SE 08:10:29 10° ENE daylight
09 Mar - 09:41:23 10° WNW 09:43:59 22° NNW 09:46:34 10° NE daylight
09 Mar - 11:19:21 10° NW 11:21:17 15° N 11:23:13 10° NE daylight
09 Mar - 12:55:41 10° NW 12:58:30 27° NNE 13:01:20 10° E daylight
09 Mar - 14:31:56 10° WNW 14:35:04 48° SW 14:38:11 10° SE daylight
10 Mar - 07:11:17 10° SSW 07:14:19 39° SE 07:17:22 10° ENE visible
10 Mar - 08:47:53 10° W 08:50:48 30° NNW 08:53:43 10° NE daylight
10 Mar - 10:26:02 10° NW 10:27:59 15° N 10:29:56 10° NNE daylight
10 Mar - 12:02:49 10° NW 12:05:18 20° NNE 12:07:48 10° ENE daylight
10 Mar - 13:38:52 10° NW 13:42:06 86° NNE 13:45:20 10° SE daylight
10 Mar - 15:17:12 10° WSW 15:18:07 11° SW 15:18:55 10° SW daylight
11 Mar - 06:18:58 10° S 06:21:26 20° SE 06:23:55 10° E visible
11 Mar - 07:54:32 10° WSW 07:57:40 47° NNW 08:00:49 10° NE daylight
11 Mar - 09:32:29 10° NW 09:34:40 17° N 09:36:51 10° NNE daylight
11 Mar - 11:09:51 10° NNW 11:12:01 16° N 11:14:12 10° NE daylight
11 Mar - 12:45:54 10° NW 12:49:02 47° NNE 12:52:10 10° ESE daylight
11 Mar - 14:22:45 10° W 14:25:16 21° SW 14:27:45 10° S daylight
12 Mar - 05:27:53 10° SE 05:28:34 11° SE 05:29:23 10° ESE visible
12 Mar - 07:01:20 10° SW 07:04:34 87° NW 07:07:49 10° NE visible
12 Mar - 08:38:51 10° WNW 08:41:22 20° NNW 08:43:52 10° NE daylight
12 Mar - 10:16:43 10° NNW 10:18:41 15° N 10:20:38 10° NE daylight
12 Mar - 11:52:57 10° NW 11:55:51 30° NNE 11:58:46 10° E daylight
12 Mar - 13:29:17 10° WNW 13:32:21 40° SW 13:35:23 10° SSE daylight
13 Mar - 06:08:25 10° SW 06:11:32 47° SE 06:14:40 10° ENE visible
13 Mar - 07:45:15 10° W 07:48:05 27° NNW 07:50:55 10° NE daylight
13 Mar - 09:23:22 10° NW 09:25:18 15° N 09:27:13 10° NE daylight
13 Mar - 11:00:01 10° NW 11:02:35 21° NNE 11:05:10 10° ENE daylight
13 Mar - 12:36:05 10° WNW 12:39:19 80° SW 12:42:32 10° SE daylight
14 Mar - 05:15:53 10° S 05:18:33 24° SE 05:21:15 10° E visible
14 Mar - 06:51:45 10° W 06:54:51 41° NNW 06:57:56 10° NE visible
14 Mar - 08:29:47 10° NW 08:31:54 16° N 08:34:00 10° NNE daylight
14 Mar - 10:06:59 10° NNW 10:09:14 17° NNE 10:11:29 10° NE daylight
14 Mar - 11:43:01 10° NW 11:46:11 54° NNE 11:49:22 10° ESE daylight
14 Mar - 13:20:05 10° W 13:22:21 18° SW 13:24:34 10° S daylight
15 Mar - 04:24:07 10° SSE 04:25:35 13° SE 04:27:09 10° ESE visible
15 Mar - 05:58:24 10° WSW 06:01:39 74° NW 06:04:53 10° NE visible
15 Mar - 07:36:04 10° WNW 07:38:30 19° NNW 07:40:54 10° NNE daylight
15 Mar - 09:13:49 10° NNW 09:15:48 15° N 09:17:48 10° NE daylight
15 Mar - 10:49:58 10° NW 10:52:57 33° NNE 10:55:55 10° E daylight
15 Mar - 12:26:24 10° WNW 12:29:21 33° SW 12:32:18 10° SSE daylight
